Weather History for KLBF - October, 2012

Change the Weather History Date:

Monday, October 29, 2012

  Actual Average Record
Temperature  
Mean Temperature 49 °F 44 °F  
Max Temperature 73 °F 59 °F 85 °F (1950)
Min Temperature 25 °F 29 °F 4 °F (1913)
Degree Days  
Heating Degree Days 16 21  
Month to date heating degree days 539 454  
Since 1 July heating degree days 674 625  
Cooling Degree Days 0 0  
Month to date cooling degree days 2 0  
Year to date cooling degree days 1245 765  
Moisture  
Dew Point 33 °F    
Average Humidity 60    
Maximum Humidity 92    
Minimum Humidity 27    
Precipitation  
Precipitation 0.00 in 0.04 in 1.27 in (1956)
Month to date precipitation 0.28 1.48  
Year to date precipitation 9.62 19.11  
Snow  
Snow 0.00 in 0.10 in 11.50 in (1896)
Month to date snowfall 2.2 1.9  
Since 1 July snowfall 2.2 2.1  
Since 1 September snowfall 2.2 2.1  
Snow Depth 0.00 in    
Sea Level Pressure  
Sea Level Pressure 30.05 in    
Wind  
Wind Speed 4 mph (SW)    
Max Wind Speed 15 mph    
Max Gust Speed 18 mph    
Visibility 10 miles    
Events      
T = Trace of Precipitation, MM = Missing Value Source: NWS Daily Summary

Daily Weather History Graph

Daily Weather History Graph

Search for Another Location

Airport or City:

Trip Planner

Search our weather history database for the weather conditions in past years. The results will help you decide how hot, cold, wet, or windy it might be!

Date:

Astronomy

Oct. 29, 2012 Rise Set
Actual Time 8:10 AM CDT 6:41 PM CDT
Civil Twilight 7:42 AM CDT 7:09 PM CDT
Nautical Twilight 7:09 AM CDT 7:42 PM CDT
Astronomical Twilight 6:37 AM CDT 8:14 PM CDT
Moon 6:34 PM CDT (10/29) 8:03 AM CDT (10/29)
Length of Visible Light 11h 27m
Length of Day
10h 30m
Full, 100% of the Moon is Illuminated
Oct 29
Full
Oct 29
Full
Nov 6
Last Quarter
Nov 13
New
Nov 20
First Quarter

Hourly Weather History & Observations

Time (CDT) Temp. Windchill Dew Point Humidity Pressure Visibility Wind Dir Wind Speed Gust Speed Precip Events Conditions
12:53 AM 42.1 °F - 27.0 °F 55% 30.05 in 10.0 mi Calm Calm - N/A   Clear
1:53 AM 36.0 °F - 26.1 °F 67% 30.07 in 10.0 mi Calm Calm - N/A   Clear
2:53 AM 32.0 °F - 24.1 °F 73% 30.07 in 10.0 mi Calm Calm - N/A   Clear
3:53 AM 30.9 °F - 26.1 °F 82% 30.07 in 10.0 mi Calm Calm - N/A   Clear
4:53 AM 28.0 °F - 23.0 °F 81% 30.06 in 10.0 mi Calm Calm - N/A   Clear
5:53 AM 27.0 °F - 23.0 °F 85% 30.08 in 10.0 mi Calm Calm - N/A   Clear
6:53 AM 25.0 °F 20.7 °F 21.9 °F 88% 30.10 in 10.0 mi NNW 3.5 mph - N/A   Clear
7:53 AM 26.1 °F 18.4 °F 24.1 °F 92% 30.12 in 10.0 mi NW 6.9 mph - N/A   Clear
8:53 AM 30.0 °F - 26.1 °F 85% 30.11 in 10.0 mi Calm Calm - N/A   Clear
9:53 AM 36.0 °F 33.3 °F 30.0 °F 79% 30.11 in 10.0 mi NNW 3.5 mph - N/A   Clear
10:53 AM 46.9 °F - 35.1 °F 63% 30.09 in 10.0 mi WSW 4.6 mph - N/A   Clear
11:53 AM 54.0 °F - 37.9 °F 55% 30.07 in 10.0 mi West 4.6 mph - N/A   Clear
12:53 PM 62.1 °F - 39.0 °F 43% 30.05 in 10.0 mi Calm Calm - N/A   Clear
1:53 PM 68.0 °F - 37.9 °F 33% 30.01 in 10.0 mi Variable 3.5 mph - N/A   Clear
2:53 PM 71.6 °F - 35.6 °F 27% 30.00 in 10.0 mi SW 11.5 mph - N/A   Clear
3:53 PM 72.0 °F - 39.0 °F 30% 29.98 in 10.0 mi SW 8.1 mph - N/A   Clear
4:53 PM 72.0 °F - 39.0 °F 30% 29.98 in 10.0 mi WSW 4.6 mph - N/A   Clear
5:53 PM 64.9 °F - 39.0 °F 39% 29.99 in 10.0 mi West 3.5 mph - N/A   Clear
6:53 PM 55.9 °F - 39.9 °F 55% 30.01 in 10.0 mi East 3.5 mph - N/A   Clear
7:53 PM 53.1 °F - 39.9 °F 61% 30.03 in 10.0 mi ESE 3.5 mph - N/A   Partly Cloudy
8:53 PM 52.0 °F - 39.0 °F 61% 30.02 in 10.0 mi ESE 4.6 mph - N/A   Clear
9:53 PM 48.0 °F - 37.0 °F 66% 30.03 in 10.0 mi ESE 8.1 mph - N/A   Clear
10:53 PM 44.1 °F 40.1 °F 35.1 °F 71% 30.01 in 10.0 mi ESE 6.9 mph - N/A   Clear
11:53 PM 43.0 °F 38.8 °F 36.0 °F 76% 29.99 in 10.0 mi ESE 6.9 mph - N/A   Mostly Cloudy